Starlink 5448

operational
NORAD ID: 54770 Int'l Des: 2022-175 Owner: SPXS Country: US Constellation: starlink
LEOCIRCULAR

About Starlink 5448

Description loading...

Live Position

Loading 3D Globe...

Upcoming Passes

Altitude History

Altitude vs Time

uPlot chart will show altitude changes over time

Two-Line Element Set

1 54770U 22175N 25338.61328179 .00001162 00000-0 91052-4 0 9999
2 54770 53.2177 96.1146 0001300 87.1694 272.9447 15.08848334165771
Epoch: Dec 4, 2025 • Age: 13 hours

Current Status

Altitude 540.2 km
Velocity 7.59 km/s
Sub-Earth Point 3.06°N, 29.98°W
Launch Date Dec 17, 2022
Age 2.9 years
Type internet

Technical Details

Classification Payload
Mass 305.00 kg
Dry Mass 290.00 kg
Total Mass 305.00 kg
Length 0.20 m
Diameter 2.80 m
Span 9.00 m
Shape Box + pan
Manufacturer SPXS
Bus Type Starlink
Phase Status In Orbit
Owner/State SPXS/US

Large Constellations

Loading constellations...